This is the latest recevied weather packets stored in our database for station/object K1BWE-1. If no packets are shown the sender has not sent any weather packets the latest 10 day(s).
| Time | Temp. | Humidity | Pressure | Rain* | Wind** | Luminosity | Snow |
|---|---|---|---|---|---|---|---|
| 1777481762 | 23.89° C | 18% | 1018.2 hPa | 0 mm | - | 445 W/m² | - |
| 1777481459 | 23.33° C | 17% | 1018.2 hPa | 0 mm | - | 389 W/m² | - |
| 1777481155 | 23.89° C | 18% | 1017.9 hPa | 0 mm | - | 652 W/m² | - |
| 1777480851 | 24.44° C | 17% | 1017.9 hPa | 0 mm | - | 639 W/m² | - |
| 1777480548 | 24.44° C | 19% | 1017.8 hPa | 0 mm | - | 729 W/m² | - |
| 1777480245 | 23.33° C | 21% | 1017.7 hPa | 0 mm | - | 732 W/m² | - |
| 1777479941 | 23.33° C | 18% | 1017.9 hPa | 0 mm | - | 691 W/m² | - |
| 1777479638 | 23.33° C | 18% | 1018.1 hPa | 0 mm | - | 442 W/m² | - |
| 1777479336 | 23.89° C | 19% | 1017.9 hPa | 0 mm | - | 508 W/m² | - |
| 1777479032 | 24.44° C | 20% | 1017.9 hPa | 0 mm | - | 579 W/m² | - |
| 1777478729 | 23.89° C | 19% | 1018.3 hPa | 0 mm | - | 661 W/m² | - |
| 1777478426 | 23.89° C | 18% | 1017.8 hPa | 0 mm | - | 566 W/m² | - |
| 1777478122 | 23.89° C | 21% | 1018.1 hPa | 0 mm | - | 437 W/m² | - |
| 1777477819 | 22.22° C | 20% | 1018.1 hPa | 0 mm | - | 538 W/m² | - |
| 1777477514 | 22.22° C | 19% | 1018.1 hPa | 0 mm | - | 496 W/m² | - |
| 1777477211 | 22.22° C | 20% | 1018.1 hPa | 0 mm | - | 457 W/m² | - |
| 1777476907 | 22.22° C | 23% | 1018.1 hPa | 0 mm | - | 397 W/m² | - |
| 1777476606 | 21.67° C | 22% | 1017.9 hPa | 0 mm | - | 337 W/m² | - |
| 1777476302 | 22.78° C | 30% | 1018.3 hPa | 0 mm | - | 234 W/m² | - |
| 1777475997 | 21.67° C | 30% | 1018.1 hPa | 0 mm | - | 313 W/m² | - |
| 1777475693 | 21.67° C | 23% | 1018.2 hPa | 0 mm | - | 183 W/m² | - |
| 1777475390 | 22.22° C | 27% | 1018.2 hPa | 0 mm | - | 141 W/m² | - |
| 1777475085 | 21.67° C | 25% | 1018.2 hPa | 0 mm | - | 212 W/m² | - |
| 1777474782 | 20° C | 25% | 1018.3 hPa | 0 mm | - | 281 W/m² | - |
| 1777474478 | 17.78° C | 28% | 1018.1 hPa | 0 mm | - | 240 W/m² | - |
* Rain latest hour (hover to see other rain measurements)
** Current wind speed in m/s (hover to see current wind gust speed)